Weather History for Galveston, TX

Change the Weather History Date:

Tuesday, September 10, 2013

  Actual Average Record
Temperature  
Mean Temperature 85 °F 83 °F  
Max Temperature 89 °F 89 °F 94 °F (1995)
Min Temperature 80 °F 77 °F 62 °F (1880)
Degree Days  
Heating Degree Days 0 0  
Month to date heating degree days 0 0  
Since 1 July heating degree days 0 0  
Cooling Degree Days 20 18  
Month to date cooling degree days 190 186  
Year to date cooling degree days 2584 2580  
Growing Degree Days 35 (Base 50)    
Moisture  
Dew Point 74 °F    
Average Humidity 74    
Maximum Humidity 79    
Minimum Humidity 68    
Precipitation  
Precipitation T in 0.25 in 8.02 in (1998)
Month to date precipitation 0.75 2.37  
Year to date precipitation 24.98 33.55  
Snow  
Snow 0.00 in - - ()
Month to date snowfall 0.0  
Since 1 July snowfall 0.0  
Since 1 September snowfall 0.0  
Snow Depth 0.00 in    
Sea Level Pressure  
Sea Level Pressure 30.02 in    
Wind  
Wind Speed 12 mph (ESE)    
Max Wind Speed 21 mph    
Max Gust Speed 25 mph    
Visibility 10 miles    
Events Rain , Thunderstorm    
T = Trace of Precipitation, MM = Missing Value Source: NWS Daily Summary

Daily Weather History Graph

Daily Weather History Graph

Search for Another Location

Airport:

Trip Planner

Search our weather history database for the weather conditions in past years. The results will help you decide how hot, cold, wet, or windy it might be!

Date:

Astronomy

Sep. 10, 2013 Rise Set
Actual Time 7:01 AM CDT 7:30 PM CDT
Civil Twilight 6:37 AM CDT 7:54 PM CDT
Nautical Twilight 6:09 AM CDT 8:22 PM CDT
Astronomical Twilight 5:41 AM CDT 8:50 PM CDT
Moon 12:01 PM CDT (9/10) 11:02 PM CDT (9/10)
Length of Visible Light 13h 16m
Length of Day
12h 28m
Waxing Crescent, 28% of the Moon is Illuminated
Sep 10
Waxing Crescent
Sep 12
First Quarter
Sep 19
Full
Sep 26
Last Quarter
Oct 4
New

Hourly Weather History & Observations

Time (CDT) Temp. Heat Index Dew Point Humidity Pressure Visibility Wind Dir Wind Speed Gust Speed Precip Events Conditions
12:44 AM 82.4 °F 88.2 °F 73.4 °F 74% 29.98 in 10.0 mi SE 11.5 mph - N/A Thunderstorm Scattered Clouds
12:52 AM 82.0 °F 88.6 °F 75.0 °F 79% 29.98 in 10.0 mi SE 11.5 mph - N/A Thunderstorm Partly Cloudy
12:59 AM 82.4 °F 89.5 °F 75.2 °F 79% 29.98 in 10.0 mi SE 10.4 mph - N/A   Partly Cloudy
1:52 AM 82.0 °F 87.9 °F 73.9 °F 76% 29.99 in 10.0 mi ESE 11.5 mph - N/A   Clear
2:52 AM 82.9 °F 88.0 °F 72.0 °F 69% 29.99 in 10.0 mi SE 11.5 mph - N/A   Clear
3:52 AM 82.0 °F 87.4 °F 73.0 °F 74% 29.98 in 10.0 mi ESE 11.5 mph - N/A   Clear
4:52 AM 82.0 °F 87.4 °F 73.0 °F 74% 29.99 in 10.0 mi SE 12.7 mph - N/A   Scattered Clouds
5:52 AM 82.0 °F 86.7 °F 72.0 °F 71% 29.99 in 10.0 mi ESE 10.4 mph - N/A   Clear
6:52 AM 82.0 °F 86.7 °F 72.0 °F 71% 30.01 in 10.0 mi ESE 8.1 mph - N/A   Partly Cloudy
7:52 AM 82.0 °F 86.7 °F 72.0 °F 71% 30.02 in 10.0 mi East 10.4 mph - N/A   Clear
8:52 AM 82.0 °F 86.7 °F 72.0 °F 71% 30.04 in 10.0 mi East 10.4 mph - N/A   Clear
9:52 AM 82.9 °F 88.8 °F 73.0 °F 72% 30.05 in 10.0 mi East 12.7 mph - N/A   Scattered Clouds
10:52 AM 84.9 °F 92.1 °F 73.9 °F 69% 30.06 in 10.0 mi ESE 12.7 mph - N/A   Scattered Clouds
11:52 AM 84.9 °F 93.3 °F 75.0 °F 72% 30.06 in 10.0 mi East 11.5 mph - N/A   Partly Cloudy
12:52 PM 86.0 °F 96.9 °F 77.0 °F 74% 30.06 in 10.0 mi East 11.5 mph - N/A   Scattered Clouds
1:52 PM 88.0 °F 100.2 °F 77.0 °F 70% 30.04 in 10.0 mi East 12.7 mph - N/A   Scattered Clouds
2:52 PM 84.9 °F 94.1 °F 75.9 °F 74% 30.04 in 10.0 mi SE 17.3 mph 25.3 mph N/A   Mostly Cloudy
2:59 PM 82.4 °F 89.5 °F 75.2 °F 79% 30.03 in 10.0 mi SE 13.8 mph - 0.00 in Rain Light Rain
3:52 PM 88.0 °F 98.5 °F 75.9 °F 67% 30.01 in 10.0 mi ESE 16.1 mph - 0.00 in   Scattered Clouds
4:52 PM 87.1 °F 96.3 °F 75.0 °F 67% 30.00 in 10.0 mi East 16.1 mph - N/A   Scattered Clouds
5:52 PM 84.9 °F 93.3 °F 75.0 °F 72% 30.01 in 10.0 mi ESE 16.1 mph - N/A   Scattered Clouds
6:52 PM 84.0 °F 90.2 °F 73.0 °F 69% 30.01 in 10.0 mi ESE 13.8 mph - N/A   Clear
7:52 PM 82.9 °F 88.8 °F 73.0 °F 72% 30.02 in 10.0 mi ESE 12.7 mph - N/A   Clear
8:52 PM 82.9 °F 90.2 °F 75.0 °F 77% 30.03 in 10.0 mi ESE 9.2 mph - N/A   Partly Cloudy
9:52 PM 82.9 °F 89.4 °F 73.9 °F 74% 30.04 in 10.0 mi ESE 11.5 mph - N/A   Partly Cloudy
10:52 PM 82.0 °F 87.4 °F 73.0 °F 74% 30.05 in 10.0 mi ESE 10.4 mph - N/A   Clear
11:52 PM 82.0 °F 87.4 °F 73.0 °F 74% 30.05 in 10.0 mi ESE 11.5 mph - N/A   Scattered Clouds